This is the latest recevied weather packets stored in our database for station/object W9KHP-1. If no packets are shown the sender has not sent any weather packets the latest 10 day(s).
| Time | Temp. | Humidity | Pressure | Rain* | Wind** | Luminosity | Snow |
|---|---|---|---|---|---|---|---|
| 1778048691 | 8.89° C | 99% | 1011.8 hPa | 1.78 mm | - | 0 W/m² | - |
| 1778048387 | 8.89° C | 99% | 1011.9 hPa | 1.27 mm | - | 0 W/m² | - |
| 1778048084 | 8.89° C | 99% | 1012 hPa | 3.05 mm | - | 0 W/m² | - |
| 1778047782 | 8.89° C | 99% | 1012.2 hPa | 1.78 mm | - | 0 W/m² | - |
| 1778047480 | 8.89° C | 99% | 1011.8 hPa | 0 mm | - | 0 W/m² | - |
| 1778047176 | 8.89° C | 99% | 1011.8 hPa | 0 mm | - | 0 W/m² | - |
| 1778046874 | 9.44° C | 99% | 1011.6 hPa | 0 mm | - | 0 W/m² | - |
| 1778046570 | 9.44° C | 99% | 1011.4 hPa | 0 mm | - | 0 W/m² | - |
| 1778046267 | 9.44° C | 99% | 1011.6 hPa | 0 mm | - | 0 W/m² | - |
| 1778045963 | 9.44° C | 99% | 1011.6 hPa | 0 mm | - | 0 W/m² | - |
| 1778045662 | 9.44° C | 99% | 1011.6 hPa | 0 mm | - | 0 W/m² | - |
| 1778045360 | 9.44° C | 99% | 1011.2 hPa | 0 mm | - | 0 W/m² | - |
| 1778045058 | 9.44° C | 99% | 1011.1 hPa | 1.27 mm | - | 0 W/m² | - |
| 1778044755 | 9.44° C | 99% | 1011.2 hPa | 0 mm | - | 0 W/m² | - |
| 1778044452 | 9.44° C | 99% | 1011.3 hPa | 0 mm | - | 0 W/m² | - |
| 1778044149 | 9.44° C | 99% | 1011.1 hPa | 0 mm | - | 0 W/m² | - |
| 1778043847 | 9.44° C | 99% | 1011 hPa | 0 mm | - | 0 W/m² | - |
| 1778043543 | 9.44° C | 99% | 1011.4 hPa | 1.78 mm | - | 0 W/m² | - |
| 1778043240 | 9.44° C | 99% | 1011.2 hPa | 3.56 mm | - | 0 W/m² | - |
| 1778042937 | 9.44° C | 99% | 1011 hPa | 4.83 mm | - | 0 W/m² | - |
| 1778042635 | 9.44° C | 99% | 1011.3 hPa | 3.05 mm | - | 0 W/m² | - |
| 1778042331 | 9.44° C | 99% | 1010.9 hPa | 3.05 mm | - | 0 W/m² | - |
| 1778042028 | 9.44° C | 99% | 1010.6 hPa | 4.83 mm | - | 0 W/m² | - |
| 1778041727 | 9.44° C | 99% | 1010.5 hPa | 1.27 mm | - | 0 W/m² | - |
| 1778041426 | 10° C | 99% | 1010.5 hPa | 0 mm | - | 0 W/m² | - |
* Rain latest hour (hover to see other rain measurements)
** Current wind speed in m/s (hover to see current wind gust speed)